This demonstration page uses our WeatherBlox Daily Observations layout. Learn more.

Left ArrowRight Arrow

39.92423, -83.80882

Hourly Observations for March 23, 2017

Temp ( °F °C ) Dew Point ( °F °C ) Humidity (%) Winds ( mph kmh ) Pressure ( in mb ) Visibility ( mi km ) Precip ( " mm )
12:56 am 00:56 Clear 24 -4.4 19 -7.2 81 81 ENE 8 13 30.53 1034 10 16.0934 0 0
1:56 am 01:56 Clear 23 -5 19 -7.2 85 85 ENE 8 13 30.53 1034 10 16.0934 0 0
2:56 am 02:56 Clear 23 -5 18 -7.8 81 81 E 9 15 30.52 1034 10 16.0934 0 0
3:56 am 03:56 Clear 21 -6.1 17 -8.3 85 85 E 8 13 30.52 1034 10 16.0934 0 0
4:56 am 04:56 Clear 22 -5.6 17 -8.3 82 82 E 9 15 30.51 1033 10 16.0934 0 0
5:56 am 05:56 Clear 23 -5 16 -8.9 74 74 E 9 15 30.51 1033 10 16.0934 0 0
6:56 am 06:56 Clear 23 -5 16 -8.9 74 74 E 10 17 30.51 1033 10 16.0934 0 0
7:56 am 07:56 Sunny 23 -5 16 -8.9 74 74 E 10 17 30.51 1033 10 16.0934 0 0
8:56 am 08:56 Sunny 26 -3.3 18 -7.8 71 71 E 9 15 30.53 1034 10 16.0934 0 0
9:56 am 09:56 Sunny 30 -1.1 19 -7.2 64 64 ESE 14 22 30.51 1033 10 16.0934 0 0
10:56 am 10:56 Partly Cloudy 34 1.1 19 -7.2 54 54 ESE 15 24 30.52 1034 10 16.0934 0 0
11:56 am 11:56 Mostly Sunny 38 3.3 20 -6.7 48 48 ESE 13 20 30.51 1033 10 16.0934 0 0
12:56 pm 12:56 Sunny 41 5 22 -5.6 47 47 SE 14 22 30.48 1032 10 16.0934 0 0
1:56 pm 13:56 Cloudy 44 6.7 23 -5 43 43 SE 16 26 30.43 1031 10 16.0934 0 0
2:56 pm 14:56 Sunny 47 8.3 25 -3.9 42 42 SSE 13 20 30.4 1030 10 16.0934 0 0
3:56 pm 15:56 Mostly Sunny 50 10 27 -2.8 41 41 SE 10 17 30.37 1028 10 16.0934 0 0
4:56 pm 16:56 Sunny 52 11.1 27 -2.8 38 38 SSE 13 20 30.33 1027 10 16.0934 0 0
5:56 pm 17:56 Sunny 52 11.1 26 -3.3 37 37 SSE 9 15 30.31 1026 10 16.0934 0 0
6:56 pm 18:56 Cloudy 52 11.1 29 -1.7 41 41 SSE 7 11 30.3 1026 10 16.0934 0 0
7:56 pm 19:56 Mostly Cloudy 50 10 29 -1.7 44 44 SE 5 7 30.29 1026 10 16.0934 0 0
8:56 pm 20:56 Partly Cloudy 46 7.8 31 -0.6 56 56 SE 5 7 30.29 1026 10 16.0934 0 0
9:56 pm 21:56 Mostly Cloudy 46 7.8 31 -0.6 56 56 SE 8 13 30.25 1024 10 16.0934 0 0
10:56 pm 22:56 Cloudy 48 8.9 31 -0.6 52 52 SSE 7 11 30.24 1024 10 16.0934 0 0
11:56 pm 23:56 Partly Cloudy 48 8.9 32 0 54 54 S 7 11 30.22 1023 10 16.0934 0 0

Powered by AerisWeather